Home   Weather   Lahti   Past weeks

Flag for Finland Past Weather in Lahti, Finland — Yesterday and Last 2 Weeks

Now
50 °F

Light rain. Low clouds.


Feels Like: 47 °F
Forecast: 49 / 57 °F
Wind: 7 mph from Southeast

Location: Utti

Current Time: Sep 29, 2016 at 2:59:24 AM

Latest Report: Sep 29, 2016 at 2:20 AM


Visibility: N/A

Pressure: 29.56 "Hg

Humidity: 100%

Dew Point: 50 °F

Location of LahtiLocation

Past Weather in Lahti — Graph

°F

Lahti Temperature Yesterday

Maximum temperature yesterday: 57 °F (at 12:50 PM)
Minimum temperature yesterday: 50 °F (at 9:20 PM)
Average temperature yesterday: 54 °F

High & Low Weather Summary for the Past Weeks

 TemperatureHumidityPressure
High63 °F (Sep 26, 4:20 PM)100% (Sep 14, 7:20 AM)30.33 "Hg (Sep 14, 7:20 AM)
Low36 °F (Sep 19, 2:20 AM)45% (Sep 14, 4:20 PM)29.56 "Hg (Sep 29, 1:20 AM)
Average50 °F82%30.11 "Hg
* Reported Sep 14 1:20 AM — Sep 29 1:20 AM, Lahti, Weather by CustomWeather, © 2016

Note: Actual official high and low records may vary slightly from our data, if they occured in-between our weather recording intervals... More about our weather records

Advertising

Lahti Weather History for the Previous 24 Hours

Scroll right to see more
 ConditionsComfort  
Time TempWeatherWind HumidityBarometerVisibility
1:20 AM
Thu, Sep 29
50 °FLight rain. Low clouds.9 mph100%29.56 "HgN/A
12:50 AM50 °FRain. Low clouds.8 mph100%29.59 "Hg6 mi
12:20 AM50 °FRain. Low clouds.9 mph94%29.59 "Hg6 mi
11:50 PM
Wed, Sep 28
50 °FLight rain. Low clouds.10 mph94%29.59 "Hg6 mi
11:20 PM50 °FLight rain. Low clouds.10 mph94%29.59 "Hg5 mi
10:50 PM50 °FLight rain. Low clouds.12 mph94%29.62 "Hg6 mi
10:20 PM50 °FLight rain. Low clouds.10 mph94%29.62 "Hg6 mi
9:50 PM50 °FLight rain. Low clouds.13 mph100%29.62 "HgN/A
9:20 PM50 °FLight rain. Low clouds.14 mph94%29.65 "HgN/A
8:50 PM52 °FSprinkles. Overcast.13 mph88%29.65 "HgN/A
8:20 PM52 °FSprinkles. Mostly cloudy.13 mph88%29.65 "HgN/A
7:50 PM52 °FSprinkles. Overcast.14 mph88%29.68 "HgN/A
7:20 PM54 °FOvercast.14 mph77%29.68 "HgN/A
6:50 PM54 °FOvercast.13 mph77%29.68 "HgN/A
6:20 PM55 °FPartly sunny.13 mph72%29.71 "HgN/A
5:50 PM55 °FMostly cloudy.12 mph67%29.74 "HgN/A
5:20 PM55 °FOvercast.13 mph67%29.74 "HgN/A
4:50 PM55 °FOvercast.13 mph67%29.77 "HgN/A
4:20 PM55 °FPartly sunny.14 mph67%29.77 "HgN/A
3:50 PM55 °FBroken clouds.13 mph67%29.80 "HgN/A
3:20 PM55 °FBroken clouds.14 mph72%29.80 "HgN/A
2:50 PM55 °FBroken clouds.12 mph72%29.83 "HgN/A
2:20 PM55 °FBroken clouds.14 mph72%29.83 "HgN/A
1:50 PM57 °FPartly sunny.16 mph67%29.86 "HgN/A
1:20 PM57 °FPartly sunny.13 mph67%29.86 "HgN/A
12:50 PM57 °FBroken clouds.15 mph63%29.89 "HgN/A
12:20 PM55 °FPartly sunny.13 mph72%29.92 "HgN/A
11:50 AM55 °FBroken clouds.14 mph72%29.92 "HgN/A
11:20 AM55 °FBroken clouds.15 mph72%29.92 "HgN/A
10:50 AM55 °FBroken clouds.13 mph77%29.95 "HgN/A
10:20 AM54 °FScattered clouds.12 mph82%29.95 "HgN/A
9:50 AM54 °FSprinkles. Partly sunny.13 mph88%29.98 "HgN/A
9:20 AM54 °FSprinkles. Partly sunny.10 mph100%29.98 "HgN/A
8:50 AM54 °FPartly sunny.8 mph100%30.01 "HgN/A
8:20 AM54 °FBroken clouds.7 mph94%30.01 "HgN/A
7:50 AM54 °FPartly sunny.7 mph94%30.04 "HgN/A
7:20 AM54 °FPartly sunny.7 mph94%30.04 "HgN/A
6:50 AM54 °FPassing clouds.7 mph94%30.07 "Hg4 mi
6:20 AM54 °FPassing clouds.7 mph94%30.07 "Hg4 mi
5:50 AM54 °FFog.6 mph94%30.09 "Hg3 mi
5:20 AM52 °FFog.5 mph100%30.09 "Hg2 mi
4:50 AM52 °FFog.6 mph100%30.12 "Hg2 mi
4:20 AM52 °FFog.3 mph100%30.12 "Hg2 mi
3:50 AM52 °FLow clouds.3 mph100%30.15 "Hg4 mi
3:20 AM54 °FPassing clouds.5 mph94%30.15 "Hg5 mi
2:50 AM54 °FPassing clouds.5 mph94%30.18 "Hg6 mi
2:20 AM54 °FLow clouds.6 mph94%30.18 "Hg6 mi
Weather by CustomWeather, © 2016

See weather overviewHow to use our weather pages